Flag for Angola Weather past 2 weeks in Lubango, Angola

Now
84 °F

Pleasantly warm.


Feels Like: 81 °F
Forecast: 57 / 80 °F
Wind: 7 mph from South

Location: Ondangwa

Current Time: Oct 26, 2014 at 9:46:25 AM

Latest Report: Oct 26, 2014 at 9:00 AM


Visibility: N/A

Pressure: 30.01 "Hg

Humidity: 15%

Dew point: 32 °F

Location of LubangoLocation

Historic Weather in Lubango — Graph

°F

Lubango temperature yesterday

Maximum temperature yesterday: 99 °F (at 3:00 PM)
Minimum temperature yesterday: 64 °F (at 5:00 AM)
Average temperature yesterday: 83 °F

Past Weeks' High & Low Weather Summary

 TemperatureHumidityPressure
High102 °F (Oct 22, 3:00 PM)61% (Oct 14, 7:00 AM)30.12 "Hg (Oct 14, 7:00 AM)
Low59 °F (Oct 17, 4:00 AM)3% (Oct 16, 12:00 PM)29.83 "Hg (Oct 23, 3:00 PM)
Average83 °F18%29.98 "Hg
* Reported Oct 11 8:00 AM — Oct 26 8:00 AM, Lubango, Weather by CustomWeather, © 2014

Note: Actual official high and low records may vary slightly from our data, if they occured in-between our weather recording intervals... More about our weather records

Advertising

Lubango weather history for previous 24 hours

 ConditionsComfort  
Time TempWeatherWind HumidityBarometerVisibility
8:00 AM
Oct 26
77 °FSunny.9 mph19%29.98 "Hg10 mi
7:00 AM72 °FSunny.7 mph23%29.98 "Hg10 mi
6:00 AM66 °FClear.3 mph24%29.95 "Hg10 mi
5:00 AM66 °FClear.3 mph22%29.95 "Hg10 mi
4:00 AM68 °FClear.5 mph18%29.92 "Hg10 mi
3:00 AM70 °FMild.5 mph15%29.89 "HgN/A
2:00 AM70 °FMild.3 mph16%29.92 "HgN/A
1:00 AM73 °FMild.5 mph15%29.92 "HgN/A
12:00 AM77 °FPleasantly warm.5 mph14%29.92 "HgN/A
11:00 PM
Oct 25
81 °FPleasantly warm.8 mph12%29.92 "HgN/A
10:00 PM82 °FPleasantly warm.10 mph9%29.92 "HgN/A
9:00 PM84 °FPleasantly warm.7 mph9%29.89 "HgN/A
8:00 PM86 °FPleasantly warm.6 mph8%29.89 "HgN/A
7:00 PM90 °FClear.6 mph7%29.86 "Hg10 mi
6:00 PM93 °FExtremely hot.7 mph7%29.86 "HgN/A
5:00 PM97 °FExtremely hot.8 mph6%29.83 "HgN/A
4:00 PM97 °FExtremely hot.7 mph5%29.83 "HgN/A
3:00 PM99 °FExtremely hot.7 mph5%29.86 "HgN/A
2:00 PM97 °FExtremely hot.6 mph5%29.89 "HgN/A
1:00 PM97 °FSunny.5 mph4%29.92 "Hg10 mi
12:00 PM93 °FSunny.5 mph4%29.98 "Hg10 mi
11:00 AM91 °FHot.5 mph5%30.01 "HgN/A
10:00 AM86 °FSunny.3 mph8%30.01 "Hg10 mi
9:00 AM81 °FSunny.5 mph11%30.01 "Hg10 mi
Weather by CustomWeather, © 2014

See weather overviewHow to use our weather pages